CGBZR CYWG-CYWG

Flight info

Callsign CGBZR
Flight time 0h 8m
Altitude 3000
Route CYWG CYWG
Aircraft SR22/L-V/N

Departure

Time 2026-05-09 07:21
Airport Winnipeg / James Armstrong Richardson International Airport (CYWG)

Arrival

Time 2026-05-09 07:30
Airport Winnipeg / James Armstrong Richardson International Airport (CYWG)
Time Latitude Longitude Altitude Speed Heading
2026-05-09 07:15 49.89697 -97.24617 781 ft 0 kts 235°
2026-05-09 07:18 49.89697 -97.24618 781 ft 0 kts 235°
2026-05-09 07:18 49.89693 -97.24625 781 ft 4 kts 217°
2026-05-09 07:18 49.89652 -97.24605 781 ft 9 kts 155°
2026-05-09 07:18 49.89618 -97.24573 781 ft 4 kts 110°
2026-05-09 07:19 49.89616 -97.24562 781 ft 2 kts 96°
2026-05-09 07:19 49.89610 -97.24488 781 ft 12 kts 98°
2026-05-09 07:19 49.89596 -97.24320 782 ft 18 kts 94°
2026-05-09 07:19 49.89593 -97.24176 783 ft 8 kts 26°
2026-05-09 07:20 49.89618 -97.24166 783 ft 0 kts
2026-05-09 07:20 49.89711 -97.24145 783 ft 50 kts 10°
2026-05-09 07:20 49.90257 -97.24025 891 ft 92 kts
2026-05-09 07:21 49.90899 -97.23918 1168 ft 101 kts
2026-05-09 07:21 49.91608 -97.23767 1418 ft 110 kts
2026-05-09 07:21 49.92422 -97.23580 1686 ft 124 kts
2026-05-09 07:21 49.93340 -97.23354 1747 ft 144 kts
2026-05-09 07:22 49.94389 -97.23064 1757 ft 160 kts
2026-05-09 07:22 49.95514 -97.22833 1763 ft 165 kts
2026-05-09 07:22 49.96655 -97.22489 1754 ft 171 kts 20°
2026-05-09 07:22 49.97619 -97.21413 1750 ft 173 kts 37°
2026-05-09 07:23 49.98553 -97.20212 1761 ft 174 kts 37°
2026-05-09 07:23 49.99488 -97.19013 1762 ft 175 kts 37°
2026-05-09 07:23 50.00436 -97.17812 1765 ft 176 kts 36°
2026-05-09 07:23 50.01365 -97.16617 1762 ft 171 kts 37°
2026-05-09 07:24 50.02276 -97.15446 1793 ft 169 kts 37°
2026-05-09 07:24 50.03147 -97.14320 1788 ft 158 kts 37°
2026-05-09 07:24 50.03962 -97.13246 1789 ft 150 kts 37°
2026-05-09 07:24 50.04758 -97.12207 1791 ft 148 kts 36°
2026-05-09 07:25 50.05529 -97.11202 1792 ft 141 kts 37°
2026-05-09 07:25 50.06265 -97.10241 1789 ft 135 kts 36°
2026-05-09 07:25 50.06972 -97.09313 1789 ft 132 kts 37°
2026-05-09 07:25 50.07675 -97.08400 1790 ft 131 kts 36°
2026-05-09 07:26 50.08369 -97.07496 1792 ft 128 kts 36°
2026-05-09 07:26 50.09123 -97.06825 1699 ft 122 kts 22°
2026-05-09 07:26 50.09798 -97.06142 1749 ft 114 kts 54°
2026-05-09 07:26 50.09780 -97.04908 1485 ft 128 kts 117°
2026-05-09 07:27 50.09180 -97.03874 1303 ft 130 kts 143°
2026-05-09 07:27 50.08417 -97.03240 1190 ft 125 kts 169°
2026-05-09 07:27 50.07620 -97.03383 1062 ft 110 kts 192°
2026-05-09 07:27 50.06908 -97.03546 929 ft 93 kts 190°
2026-05-09 07:28 50.06280 -97.03687 791 ft 91 kts 189°
2026-05-09 07:28 50.05697 -97.03819 763 ft 85 kts 186°
2026-05-09 07:28 50.05134 -97.03928 820 ft 78 kts 189°
2026-05-09 07:28 50.04762 -97.03814 757 ft 0 kts 124°
2026-05-09 07:30 49.89699 -97.24615 781 ft 0 kts 235°
2026-05-09 07:31 49.89694 -97.24620 781 ft 4 kts 201°
2026-05-09 07:31 49.89666 -97.24610 781 ft 1 kts 158°
2026-05-09 07:32 49.89628 -97.24580 781 ft 11 kts 135°
2026-05-09 07:32 49.89614 -97.24530 781 ft 0 kts 95°
2026-05-09 07:34 49.89614 -97.24529 781 ft 0 kts 95°
2026-05-09 07:34 49.89610 -97.24490 781 ft 8 kts 99°
2026-05-09 07:34 49.89597 -97.24358 782 ft 16 kts 97°
2026-05-09 07:35 49.89597 -97.24186 783 ft 17 kts 45°
2026-05-09 07:35 49.89895 -97.24108 781 ft 79 kts
2026-05-09 07:35 49.90517 -97.23985 1000 ft 93 kts
2026-05-09 07:35 49.91115 -97.23548 1283 ft 102 kts 31°
2026-05-09 07:36 49.91616 -97.22872 1690 ft 95 kts 35°
2026-05-09 07:36 49.92211 -97.22212 1770 ft 116 kts 24°
2026-05-09 07:36 49.92997 -97.21583 1772 ft 140 kts 22°
2026-05-09 07:36 49.93938 -97.20901 1774 ft 157 kts 21°
2026-05-09 07:37 49.94965 -97.20195 1771 ft 164 kts 20°
2026-05-09 07:37 49.96026 -97.19486 1765 ft 168 kts 20°
2026-05-09 07:37 49.97115 -97.18774 1761 ft 171 kts 21°
2026-05-09 07:37 49.98169 -97.17897 1766 ft 173 kts 27°
2026-05-09 07:38 49.99225 -97.16967 1763 ft 176 kts 26°
2026-05-09 07:38 50.00294 -97.16037 1794 ft 175 kts 26°
2026-05-09 07:38 50.01358 -97.15105 1795 ft 175 kts 27°
2026-05-09 07:38 50.02394 -97.14184 1791 ft 169 kts 26°
2026-05-09 07:39 50.03390 -97.13312 1792 ft 161 kts 27°
2026-05-09 07:39 50.04353 -97.12448 1790 ft 161 kts 27°
2026-05-09 07:39 50.05320 -97.11581 1790 ft 159 kts 27°
2026-05-09 07:39 50.06247 -97.10756 1790 ft 147 kts 27°
2026-05-09 07:40 50.07104 -97.09991 1790 ft 138 kts 27°
2026-05-09 07:40 50.07912 -97.09264 1791 ft 131 kts 27°
2026-05-09 07:40 50.08687 -97.08570 1791 ft 126 kts 26°
2026-05-09 07:40 50.09437 -97.07896 1792 ft 122 kts 27°
2026-05-09 07:41 50.09974 -97.06944 1714 ft 123 kts 73°
2026-05-09 07:41 50.09918 -97.05600 1665 ft 128 kts 112°
2026-05-09 07:41 50.09331 -97.04572 1598 ft 126 kts 135°
2026-05-09 07:41 50.08682 -97.03660 1392 ft 120 kts 149°
2026-05-09 07:42 50.07952 -97.03391 1174 ft 105 kts 181°
2026-05-09 07:42 50.07263 -97.03477 1004 ft 98 kts 189°
2026-05-09 07:42 50.06602 -97.03616 856 ft 95 kts 190°
2026-05-09 07:42 50.05961 -97.03755 760 ft 83 kts 189°
2026-05-09 07:43 50.05389 -97.03877 844 ft 82 kts 187°
2026-05-09 07:43 50.04955 -97.04396 935 ft 85 kts 208°
2026-05-09 07:43 50.04667 -97.03918 1002 ft 78 kts 40°
2026-05-09 07:43 50.05113 -97.03487 781 ft 76 kts 41°
2026-05-09 07:44 50.05394 -97.03063 763 ft 35 kts 43°
2026-05-09 07:44 50.05539 -97.02836 762 ft 19 kts 45°
2026-05-09 07:44 50.05604 -97.02747 762 ft 12 kts 39°
2026-05-09 07:44 50.05629 -97.02680 763 ft 10 kts 179°
2026-05-09 07:45 50.05598 -97.02742 762 ft 0 kts 228°
2026-05-09 07:45 50.05532 -97.02848 762 ft 49 kts 225°
2026-05-09 07:45 50.05140 -97.03423 845 ft 91 kts 213°
2026-05-09 07:46 50.04961 -97.04119 909 ft 81 kts 328°
2026-05-09 07:46 50.05488 -97.03859 792 ft 76 kts
2026-05-09 07:46 50.05885 -97.03778 760 ft 23 kts
2026-05-09 07:46 50.06033 -97.03754 761 ft 19 kts
2026-05-09 07:47 50.06133 -97.03735 760 ft 9 kts 62°
2026-05-09 07:47 50.05990 -97.03754 758 ft 58 kts 188°
2026-05-09 07:47 50.05414 -97.03870 851 ft 95 kts 189°
2026-05-09 07:47 50.04983 -97.03510 975 ft 87 kts 49°
2026-05-09 07:48 50.05519 -97.02901 949 ft 103 kts 43°
2026-05-09 07:48 50.06009 -97.02170 1259 ft 86 kts 28°
2026-05-09 07:48 50.06271 -97.02590 1011 ft 80 kts 261°
2026-05-09 07:48 50.06229 -97.03392 872 ft 71 kts 257°
2026-05-09 07:49 50.06122 -97.03630 759 ft 0 kts 247°
2026-05-09 07:49 49.89699 -97.24615 781 ft 0 kts 235°
2026-05-09 07:51 49.89671 -97.24623 781 ft 11 kts 155°
2026-05-09 07:51 49.89651 -97.24608 781 ft 0 kts 154°
2026-05-09 07:51 49.89616 -97.24566 781 ft 6 kts 154°
2026-05-09 07:51 49.89667 -97.24626 781 ft 15 kts 334°
2026-05-09 07:52 49.89780 -97.24651 781 ft 19 kts
2026-05-09 07:52 49.89920 -97.24622 781 ft 22 kts
2026-05-09 07:52 49.90077 -97.24599 781 ft 24 kts
2026-05-09 07:52 49.90246 -97.24563 781 ft 25 kts
2026-05-09 07:53 49.90422 -97.24544 781 ft 24 kts 360°
2026-05-09 07:53 49.90549 -97.24552 781 ft 17 kts 350°
2026-05-09 07:53 49.90660 -97.24491 783 ft 19 kts 49°
2026-05-09 07:53 49.90735 -97.24311 783 ft 23 kts 79°
2026-05-09 07:54 49.90766 -97.24073 783 ft 15 kts 82°
2026-05-09 07:54 49.90770 -97.23932 784 ft 14 kts 134°
2026-05-09 07:54 49.90574 -97.23945 783 ft 63 kts 188°
2026-05-09 07:54 49.89971 -97.24062 933 ft 95 kts 187°
2026-05-09 07:55 49.89284 -97.24142 1236 ft 101 kts 182°
2026-05-09 07:55 49.88686 -97.23738 1471 ft 101 kts 118°
2026-05-09 07:55 49.88660 -97.22634 1386 ft 104 kts 58°
2026-05-09 07:55 49.89202 -97.22488 1084 ft 89 kts 324°
2026-05-09 07:56 49.89683 -97.23037 820 ft 81 kts 320°
2026-05-09 07:56 49.90046 -97.23517 783 ft 57 kts 314°
2026-05-09 07:56 49.90436 -97.24059 1019 ft 73 kts 315°
2026-05-09 07:56 49.90901 -97.24080 1363 ft 84 kts 47°
2026-05-09 07:57 49.91041 -97.23021 1557 ft 107 kts 64°
2026-05-09 07:57 49.91452 -97.22023 1860 ft 119 kts 44°
2026-05-09 07:57 49.92132 -97.20984 1785 ft 153 kts 39°
2026-05-09 07:57 49.92999 -97.19905 1769 ft 164 kts 29°
2026-05-09 07:58 49.94019 -97.19017 1767 ft 171 kts 26°
2026-05-09 07:58 49.95071 -97.18096 1767 ft 176 kts 26°
2026-05-09 07:58 49.96142 -97.17159 1765 ft 177 kts 27°
2026-05-09 07:58 49.97217 -97.16209 1792 ft 178 kts 27°
2026-05-09 07:59 49.98285 -97.15263 1799 ft 176 kts 27°
2026-05-09 07:59 49.99365 -97.14318 1800 ft 181 kts 26°
2026-05-09 07:59 50.00463 -97.13365 1805 ft 179 kts 27°
2026-05-09 07:59 50.01556 -97.12402 1800 ft 180 kts 27°
2026-05-09 08:00 50.02626 -97.11473 1808 ft 178 kts 26°
2026-05-09 08:00 50.03720 -97.10528 1806 ft 181 kts 26°
2026-05-09 08:00 50.04811 -97.09567 1810 ft 180 kts 28°
2026-05-09 08:00 50.05904 -97.08605 1800 ft 179 kts 26°
2026-05-09 08:01 50.06997 -97.07700 1802 ft 178 kts 26°
2026-05-09 08:01 50.08087 -97.06763 1806 ft 179 kts 26°
2026-05-09 08:01 50.09176 -97.05831 1796 ft 178 kts 27°
2026-05-09 08:01 50.10260 -97.04910 1800 ft 177 kts 26°
2026-05-09 08:02 50.11340 -97.04002 1806 ft 178 kts 26°
2026-05-09 08:02 50.12320 -97.02905 1929 ft 171 kts 58°
2026-05-09 08:02 50.12241 -97.01249 2413 ft 155 kts 126°
2026-05-09 08:02 50.11303 -97.00729 2740 ft 158 kts 182°
2026-05-09 08:03 50.10226 -97.01264 2569 ft 161 kts 215°
2026-05-09 08:03 50.09296 -97.02240 2071 ft 165 kts 218°
2026-05-09 08:03 50.08364 -97.03040 1778 ft 131 kts 202°
2026-05-09 08:03 50.07565 -97.03429 1336 ft 111 kts 193°
2026-05-09 08:04 50.06819 -97.03568 957 ft 104 kts 187°
2026-05-09 08:04 50.06110 -97.03720 766 ft 99 kts 189°
2026-05-09 08:04 50.05474 -97.03939 869 ft 96 kts 217°
2026-05-09 08:04 50.05114 -97.04145 902 ft 88 kts 142°
2026-05-09 08:05 50.05047 -97.03805 759 ft 0 kts 72°